Location: Chena
(64.8152°N, 147.9227°W)
Time: 00:30:36
(UTC+00:00)

Vanguard 2 - Pass Details

Date: 07 March 2021
Orbit: 552 x 2938 km, 32.9° (Epoch: 10 April)

Event Time Altitude Azimuth Distance (km) Brightness Sun altitude
Rises 15:16:36 0° 234° (SW) 5,949 - -9.4°
Exits shadow 15:17:35 - 231° (SW) 5,820 11.5 -9.3°
Reaches altitude 10° 15:22:36 10° 216° (SW) 5,316 11.4 -8.8°
Maximum altitude 15:30:46 16° 185° (S) 5,128 11.6 -7.9°
Drops below altitude 10° 15:39:32 10° 155° (SSE) 5,767 12.3 -7.0°
Sets 15:46:36 0° 138° (SE) 6,700 13.0 -6.2°
